Time,TemperatureF,DewpointF,PressureIn,WindDirection,WindDirectionDegrees,WindSpeedMPH,WindSpeedGustMPH,Humidity,HourlyPrecipIn,Conditions,Clouds,dailyrainin,SoftwareType,DateUTC
2013-04-06 00:00:00,39.2,26.1,30.21,NNE,20,4.0,11.0,59,0.00,,SCT055,0.00,VWS V13.01,2013-04-06 04:00:00,
2013-04-06 00:05:00,39.3,26.2,30.22,NNE,20,3.0,8.0,59,0.00,,SCT055,0.00,VWS V13.01,2013-04-06 04:05:00,
2013-04-06 00:10:00,39.1,26.8,30.22,NNE,20,4.0,9.0,61,0.00,,SCT055,0.00,VWS V13.01,2013-04-06 04:10:00,
2013-04-06 00:15:00,38.9,27.0,30.22,NNE,20,4.0,9.0,62,0.00,,SCT055,0.00,VWS V13.01,2013-04-06 04:15:00,
2013-04-06 00:20:00,38.7,26.8,30.21,NNE,20,3.0,9.0,62,0.00,,SCT055,0.00,VWS V13.01,2013-04-06 04:20:00,
2013-04-06 00:25:00,38.4,26.9,30.22,NNE,20,5.0,9.0,63,0.00,,SCT055,0.00,VWS V13.01,2013-04-06 04:25:00,
2013-04-06 00:30:00,38.2,26.3,30.21,NNE,20,4.0,4.0,62,0.00,,SCT055,0.00,VWS V13.01,2013-04-06 04:30:00,
2013-04-06 00:35:00,38.1,26.2,30.21,NNE,20,2.0,6.0,62,0.00,,SCT055,0.00,VWS V13.01,2013-04-06 04:35:00,
2013-04-06 00:40:00,38.4,26.5,30.21,NNE,20,3.0,6.0,62,0.00,,SCT055,0.00,VWS V13.01,2013-04-06 04:40:00,
2013-04-06 00:45:00,38.6,26.7,30.21,NNE,20,4.0,6.0,62,0.00,,SCT055,0.00,VWS V13.01,2013-04-06 04:45:00,
2013-04-06 00:50:00,38.4,26.5,30.21,NNE,20,4.0,6.0,62,0.00,,SCT055,0.00,VWS V13.01,2013-04-06 04:50:00,
2013-04-06 00:55:00,38.3,26.4,30.21,NNE,20,4.0,6.0,62,0.00,,SCT055,0.00,VWS V13.01,2013-04-06 04:55:00,
2013-04-06 01:00:00,38.3,26.0,30.21,NNE,20,4.0,5.0,61,0.00,,SCT055,0.00,VWS V13.01,2013-04-06 05:00:00,
2013-04-06 01:05:00,38.4,26.5,30.21,NNE,20,4.0,5.0,62,0.00,,SCT055,0.00,VWS V13.01,2013-04-06 05:05:00,
2013-04-06 01:10:00,38.2,26.3,30.22,NNE,20,2.0,5.0,62,0.00,,SCT055,0.00,VWS V13.01,2013-04-06 05:10:00,
2013-04-06 01:15:00,38.1,26.2,30.21,NNE,20,2.0,5.0,62,0.00,,SCT055,0.00,VWS V13.01,2013-04-06 05:15:00,
2013-04-06 01:20:00,38.0,26.5,30.21,NNE,20,2.0,5.0,63,0.00,,SCT055,0.00,VWS V13.01,2013-04-06 05:20:00,
2013-04-06 01:25:00,38.0,26.5,30.22,NNE,20,2.0,5.0,63,0.00,,SCT055,0.00,VWS V13.01,2013-04-06 05:25:00,
2013-04-06 01:30:00,37.9,26.5,30.22,NNE,20,2.0,2.0,63,0.00,,SCT055,0.00,VWS V13.01,2013-04-06 05:30:00,
2013-04-06 01:35:00,37.7,26.3,30.21,NNE,20,2.0,4.0,63,0.00,,SCT055,0.00,VWS V13.01,2013-04-06 05:35:00,
2013-04-06 01:40:00,37.9,26.5,30.21,NNE,20,2.0,4.0,63,0.00,,SCT055,0.00,VWS V13.01,2013-04-06 05:40:00,
2013-04-06 01:45:00,38.2,26.0,30.21,NNE,20,3.0,4.0,61,0.00,,SCT055,0.00,VWS V13.01,2013-04-06 05:45:00,
2013-04-06 01:50:00,38.6,25.9,30.21,NNE,20,2.0,4.0,60,0.00,,SCT055,0.00,VWS V13.01,2013-04-06 05:50:00,
2013-04-06 01:55:00,38.8,26.5,30.21,NNE,20,3.0,4.0,61,0.00,,SCT055,0.00,VWS V13.01,2013-04-06 05:55:00,
2013-04-06 02:00:00,38.9,26.2,30.21,NNE,20,3.0,4.0,60,0.00,,SCT055,0.00,VWS V13.01,2013-04-06 06:00:00,
2013-04-06 02:05:00,38.9,26.2,30.21,NNE,20,3.0,5.0,60,0.00,,SCT055,0.00,VWS V13.01,2013-04-06 06:05:00,
2013-04-06 02:10:00,38.9,26.2,30.20,NNE,20,2.0,5.0,60,0.00,,SCT055,0.00,VWS V13.01,2013-04-06 06:10:00,
2013-04-06 02:15:00,38.8,26.5,30.20,NNE,20,5.0,6.0,61,0.00,,SCT055,0.00,VWS V13.01,2013-04-06 06:15:00,
2013-04-06 02:20:00,38.8,26.5,30.20,NNE,20,3.0,6.0,61,0.00,,SCT055,0.00,VWS V13.01,2013-04-06 06:20:00,
2013-04-06 02:25:00,38.7,26.8,30.20,NNE,20,3.0,6.0,62,0.00,,SCT055,0.00,VWS V13.01,2013-04-06 06:25:00,
2013-04-06 02:30:00,38.4,26.5,30.20,NNE,20,5.0,5.0,62,0.00,,SCT055,0.00,VWS V13.01,2013-04-06 06:30:00,
2013-04-06 02:35:00,38.4,26.1,30.19,NNE,20,2.0,6.0,61,0.00,,SCT055,0.00,VWS V13.01,2013-04-06 06:35:00,
2013-04-06 02:40:00,38.3,26.0,30.19,NNE,20,3.0,6.0,61,0.00,,SCT055,0.00,VWS V13.01,2013-04-06 06:40:00,
2013-04-06 02:46:00,38.3,25.6,30.20,NNE,20,2.0,6.0,60,0.00,,SCT055,0.00,VWS V13.01,2013-04-06 06:46:00,
2013-04-06 02:51:00,38.3,25.6,30.19,NNE,20,2.0,6.0,60,0.00,,SCT055,0.00,VWS V13.01,2013-04-06 06:51:00,
2013-04-06 02:56:00,38.3,25.6,30.19,NNE,20,2.0,6.0,60,0.00,,SCT055,0.00,VWS V13.01,2013-04-06 06:56:00,
2013-04-06 03:01:00,38.3,25.6,30.19,NNE,24,4.0,5.0,60,0.00,,SCT055,0.00,VWS V13.01,2013-04-06 07:01:00,
2013-04-06 03:06:00,38.3,25.6,30.19,NNE,24,5.0,5.0,60,0.00,,SCT055,0.00,VWS V13.01,2013-04-06 07:06:00,
2013-04-06 03:11:00,38.0,25.8,30.18,East,88,3.0,7.0,61,0.00,,SCT055,0.00,VWS V13.01,2013-04-06 07:11:00,
2013-04-06 03:16:00,37.9,25.3,30.19,East,88,3.0,7.0,60,0.00,,SCT055,0.00,VWS V13.01,2013-04-06 07:16:00,
2013-04-06 03:21:00,37.9,25.7,30.18,East,91,6.0,7.0,61,0.00,,SCT055,0.00,VWS V13.01,2013-04-06 07:21:00,
2013-04-06 03:26:00,37.8,25.6,30.18,East,100,6.0,7.0,61,0.00,,SCT055,0.00,VWS V13.01,2013-04-06 07:26:00,
2013-04-06 03:31:00,37.8,26.0,30.17,ESE,115,5.0,7.0,62,0.00,,SCT055,0.00,VWS V13.01,2013-04-06 07:31:00,
2013-04-06 03:36:00,37.8,25.2,30.17,ESE,112,5.0,9.0,60,0.00,,SCT055,0.00,VWS V13.01,2013-04-06 07:36:00,
2013-04-06 03:41:00,38.2,24.7,30.17,ESE,107,5.0,9.0,58,0.00,,SCT055,0.00,VWS V13.01,2013-04-06 07:41:00,
2013-04-06 03:46:00,38.6,23.8,30.18,East,97,4.0,9.0,55,0.00,,SCT055,0.00,VWS V13.01,2013-04-06 07:46:00,
2013-04-06 03:51:00,39.1,23.4,30.18,East,101,4.0,9.0,53,0.00,,SCT055,0.00,VWS V13.01,2013-04-06 07:51:00,
2013-04-06 03:56:00,39.3,23.6,30.18,ESE,105,5.0,9.0,53,0.00,,SCT055,0.00,VWS V13.01,2013-04-06 07:56:00,
2013-04-06 04:01:00,39.1,23.4,30.18,ESE,103,8.0,9.0,53,0.00,,SCT055,0.00,VWS V13.01,2013-04-06 08:01:00,
2013-04-06 04:06:00,39.2,23.5,30.18,East,95,4.0,9.0,53,0.00,,SCT055,0.00,VWS V13.01,2013-04-06 08:06:00,
2013-04-06 04:11:00,39.4,24.1,30.18,East,101,4.0,9.0,54,0.00,,SCT055,0.00,VWS V13.01,2013-04-06 08:11:00,
2013-04-06 04:16:00,39.3,24.1,30.18,ESE,103,5.0,9.0,54,0.00,,SCT055,0.00,VWS V13.01,2013-04-06 08:16:00,
2013-04-06 04:21:00,39.4,23.7,30.18,ESE,102,1.0,9.0,53,0.00,,SCT055,0.00,VWS V13.01,2013-04-06 08:21:00,
2013-04-06 04:26:00,39.5,23.8,30.19,East,94,2.0,9.0,53,0.00,,SCT055,0.00,VWS V13.01,2013-04-06 08:26:00,
2013-04-06 04:31:00,39.7,24.4,30.19,East,98,5.0,5.0,54,0.00,,SCT055,0.00,VWS V13.01,2013-04-06 08:31:00,
2013-04-06 04:36:00,39.7,24.4,30.20,East,98,4.0,6.0,54,0.00,,SCT055,0.00,VWS V13.01,2013-04-06 08:36:00,
2013-04-06 04:41:00,39.8,24.5,30.20,East,98,2.0,6.0,54,0.00,,SCT055,0.00,VWS V13.01,2013-04-06 08:41:00,
2013-04-06 04:46:00,39.8,24.5,30.20,East,98,4.0,6.0,54,0.00,,SCT055,0.00,VWS V13.01,2013-04-06 08:46:00,
2013-04-06 04:51:00,39.7,24.9,30.20,ESE,110,4.0,7.0,55,0.00,,SCT055,0.00,VWS V13.01,2013-04-06 08:51:00,
2013-04-06 04:56:00,39.7,25.3,30.20,ESE,105,6.0,7.0,56,0.00,,SCT055,0.00,VWS V13.01,2013-04-06 08:56:00,
2013-04-06 05:01:00,39.7,25.7,30.20,East,98,5.0,5.0,57,0.00,,SCT055,0.00,VWS V13.01,2013-04-06 09:01:00,
2013-04-06 05:06:00,39.7,25.7,30.21,East,96,3.0,6.0,57,0.00,,SCT055,0.00,VWS V13.01,2013-04-06 09:06:00,
2013-04-06 05:11:00,39.8,26.2,30.20,ESE,105,5.0,7.0,58,0.00,,SCT055,0.00,VWS V13.01,2013-04-06 09:11:00,
2013-04-06 05:16:00,39.7,26.6,30.21,ESE,111,5.0,7.0,59,0.00,,SCT055,0.00,VWS V13.01,2013-04-06 09:16:00,
2013-04-06 05:21:00,39.8,27.1,30.21,ESE,119,5.0,9.0,60,0.00,,SCT055,0.00,VWS V13.01,2013-04-06 09:21:00,
2013-04-06 05:26:00,39.9,26.8,30.21,ESE,114,3.0,10.0,59,0.00,,SCT055,0.00,VWS V13.01,2013-04-06 09:26:00,
2013-04-06 05:31:00,40.0,26.8,30.21,ESE,119,4.0,6.0,59,0.00,,SCT055,0.00,VWS V13.01,2013-04-06 09:31:00,
2013-04-06 05:36:00,40.1,27.4,30.21,ESE,118,6.0,10.0,60,0.00,,SCT055,0.00,VWS V13.01,2013-04-06 09:36:00,
2013-04-06 05:41:00,40.1,26.9,30.21,ESE,121,3.0,12.0,59,0.00,,SCT055,0.00,VWS V13.01,2013-04-06 09:41:00,
2013-04-06 05:46:00,40.2,27.0,30.21,SE,125,4.0,13.0,59,0.00,,SCT055,0.00,VWS V13.01,2013-04-06 09:46:00,
2013-04-06 05:51:00,40.3,27.1,30.21,SE,130,4.0,13.0,59,0.00,,SCT055,0.00,VWS V13.01,2013-04-06 09:51:00,
2013-04-06 05:56:00,40.3,27.1,30.21,ESE,115,11.0,13.0,59,0.00,,SCT055,0.00,VWS V13.01,2013-04-06 09:56:00,
2013-04-06 06:01:00,40.4,26.8,30.22,ESE,115,9.0,13.0,58,0.00,,SCT055,0.00,VWS V13.01,2013-04-06 10:01:00,
2013-04-06 06:06:00,40.4,27.2,30.22,SE,134,7.0,13.0,59,0.00,,SCT055,0.00,VWS V13.01,2013-04-06 10:06:00,
2013-04-06 06:12:00,40.5,26.9,30.22,SE,129,4.0,15.0,58,0.00,,SCT055,0.00,VWS V13.01,2013-04-06 10:12:00,
2013-04-06 06:17:00,40.5,26.9,30.22,SE,129,7.0,15.0,58,0.00,,SCT055,0.00,VWS V13.01,2013-04-06 10:17:00,
2013-04-06 06:22:00,40.5,26.9,30.22,SE,126,9.0,15.0,58,0.00,,SCT055,0.00,VWS V13.01,2013-04-06 10:22:00,
2013-04-06 06:27:00,40.5,26.9,30.22,SE,128,10.0,15.0,58,0.00,,SCT055,0.00,VWS V13.01,2013-04-06 10:27:00,
2013-04-06 06:32:00,40.5,26.9,30.22,SE,137,10.0,15.0,58,0.00,,SCT055,0.00,VWS V13.01,2013-04-06 10:32:00,
2013-04-06 06:37:00,40.5,26.9,30.21,SE,134,8.0,15.0,58,0.00,,SCT055,0.00,VWS V13.01,2013-04-06 10:37:00,
2013-04-06 06:42:00,40.5,26.9,30.21,ESE,121,5.0,15.0,58,0.00,,SCT055,0.00,VWS V13.01,2013-04-06 10:42:00,
2013-04-06 06:47:00,40.5,26.9,30.22,SE,131,12.0,17.0,58,0.00,,SCT055,0.00,VWS V13.01,2013-04-06 10:47:00,
2013-04-06 06:52:00,40.5,26.9,30.22,SE,138,9.0,17.0,58,0.00,,SCT055,0.00,VWS V13.01,2013-04-06 10:52:00,
2013-04-06 06:57:00,40.6,26.6,30.22,SE,124,9.0,17.0,57,0.00,,SCT055,0.00,VWS V13.01,2013-04-06 10:57:00,
2013-04-06 07:02:00,40.5,26.5,30.22,SSE,148,7.0,18.0,57,0.00,,SCT055,0.00,VWS V13.01,2013-04-06 11:02:00,
2013-04-06 07:07:00,40.6,27.0,30.21,SE,130,11.0,18.0,58,0.00,,SCT055,0.00,VWS V13.01,2013-04-06 11:07:00,
2013-04-06 07:12:00,40.5,26.5,30.21,SE,136,6.0,18.0,57,0.00,,SCT055,0.00,VWS V13.01,2013-04-06 11:12:00,
2013-04-06 07:17:00,40.6,26.6,30.21,SE,135,13.0,19.0,57,0.00,,SCT055,0.00,VWS V13.01,2013-04-06 11:17:00,
2013-04-06 07:22:00,40.6,26.6,30.21,ESE,120,14.0,19.0,57,0.00,,SCT055,0.00,VWS V13.01,2013-04-06 11:22:00,
2013-04-06 07:27:00,40.7,26.7,30.21,SE,124,7.0,19.0,57,0.00,,SCT055,0.00,VWS V13.01,2013-04-06 11:27:00,
2013-04-06 07:32:00,40.7,26.7,30.21,ESE,113,11.0,16.0,57,0.00,,SCT055,0.00,VWS V13.01,2013-04-06 11:32:00,
2013-04-06 07:33:00,40.7,26.7,30.21,ESE,115,17.0,17.0,57,0.00,,SCT055,0.00,VWS V13.01,2013-04-06 11:33:00,
2013-04-06 07:38:00,40.8,26.8,30.22,SE,127,10.0,17.0,57,0.00,,SCT055,0.00,VWS V13.01,2013-04-06 11:38:00,
2013-04-06 07:43:00,40.9,26.4,30.22,ESE,122,6.0,19.0,56,0.00,,SCT055,0.00,VWS V13.01,2013-04-06 11:43:00,
2013-04-06 07:48:00,41.0,26.5,30.22,ESE,120,14.0,19.0,56,0.00,,SCT055,0.00,VWS V13.01,2013-04-06 11:48:00,
2013-04-06 07:53:00,41.2,26.3,30.22,ESE,121,15.0,19.0,55,0.00,,SCT055,0.00,VWS V13.01,2013-04-06 11:53:00,
2013-04-06 07:58:00,41.3,25.9,30.22,ESE,122,13.0,19.0,54,0.00,,SCT055,0.00,VWS V13.01,2013-04-06 11:58:00,
2013-04-06 08:03:00,41.4,26.5,30.23,SE,136,10.0,17.0,55,0.00,,SCT055,0.00,VWS V13.01,2013-04-06 12:03:00,
2013-04-06 08:08:00,41.5,26.1,30.23,SE,134,10.0,19.0,54,0.00,,SCT055,0.00,VWS V13.01,2013-04-06 12:08:00,
2013-04-06 08:13:00,41.6,26.2,30.23,SE,135,11.0,19.0,54,0.00,,SCT055,0.00,VWS V13.01,2013-04-06 12:13:00,
2013-04-06 08:18:00,41.7,26.3,30.23,SE,131,12.0,19.0,54,0.00,,SCT055,0.00,VWS V13.01,2013-04-06 12:18:00,
2013-04-06 08:23:00,41.8,26.4,30.23,SE,144,13.0,19.0,54,0.00,,SCT055,0.00,VWS V13.01,2013-04-06 12:23:00,
2013-04-06 08:28:00,42.0,26.1,30.23,SSE,150,13.0,19.0,53,0.00,,SCT055,0.00,VWS V13.01,2013-04-06 12:28:00,
2013-04-06 08:33:00,42.2,25.9,30.23,SSE,157,11.0,17.0,52,0.00,,SCT055,0.00,VWS V13.01,2013-04-06 12:33:00,
2013-04-06 08:38:00,42.4,26.0,30.23,SE,139,5.0,19.0,52,0.00,,SCT055,0.00,VWS V13.01,2013-04-06 12:38:00,
2013-04-06 08:43:00,42.5,26.1,30.23,SE,142,9.0,23.0,52,0.00,,SCT055,0.00,VWS V13.01,2013-04-06 12:43:00,
2013-04-06 08:48:00,42.5,26.1,30.23,SE,136,22.0,23.0,52,0.00,,SCT055,0.00,VWS V13.01,2013-04-06 12:48:00,
2013-04-06 08:53:00,42.7,26.3,30.23,SE,140,5.0,23.0,52,0.00,,SCT055,0.00,VWS V13.01,2013-04-06 12:53:00,
2013-04-06 08:58:00,42.8,25.9,30.23,SE,137,10.0,23.0,51,0.00,,SCT055,0.00,VWS V13.01,2013-04-06 12:58:00,
2013-04-06 09:03:00,42.9,26.5,30.23,SE,131,6.0,19.0,52,0.00,,SCT055,0.00,VWS V13.01,2013-04-06 13:03:00,
2013-04-06 09:08:00,42.9,26.0,30.22,SE,126,16.0,21.0,51,0.00,,SCT055,0.00,VWS V13.01,2013-04-06 13:08:00,
2013-04-06 09:13:00,43.0,26.1,30.21,SE,137,19.0,22.0,51,0.00,,SCT055,0.00,VWS V13.01,2013-04-06 13:13:00,
2013-04-06 09:18:00,43.2,25.8,30.21,SE,140,10.0,23.0,50,0.00,,SCT055,0.00,VWS V13.01,2013-04-06 13:18:00,
2013-04-06 09:23:00,43.4,26.0,30.21,SE,134,16.0,23.0,50,0.00,,SCT055,0.00,VWS V13.01,2013-04-06 13:23:00,
2013-04-06 09:28:00,43.6,25.7,30.20,ESE,122,17.0,23.0,49,0.00,,SCT055,0.00,VWS V13.01,2013-04-06 13:28:00,
2013-04-06 09:33:00,43.7,26.3,30.20,SE,132,13.0,25.0,50,0.00,,SCT055,0.00,VWS V13.01,2013-04-06 13:33:00,
2013-04-06 09:38:00,43.9,26.0,30.20,SE,134,12.0,25.0,49,0.00,,SCT055,0.00,VWS V13.01,2013-04-06 13:38:00,
2013-04-06 09:43:00,44.3,26.4,30.20,SE,139,15.0,25.0,49,0.00,,SCT055,0.00,VWS V13.01,2013-04-06 13:43:00,
2013-04-06 09:48:00,45.0,26.5,30.20,SSE,161,18.0,25.0,48,0.00,,SCT050,0.00,VWS V13.01,2013-04-06 13:48:00,
2013-04-06 09:53:00,45.5,27.5,30.20,SSE,147,15.0,25.0,49,0.00,,SCT050,0.00,VWS V13.01,2013-04-06 13:53:00,
2013-04-06 09:58:00,45.5,27.0,30.19,SE,132,18.0,25.0,48,0.00,,SCT050,0.00,VWS V13.01,2013-04-06 13:58:00,
2013-04-06 10:03:00,45.5,27.0,30.20,SSE,148,13.0,22.0,48,0.00,,SCT050,0.00,VWS V13.01,2013-04-06 14:03:00,
2013-04-06 10:08:00,45.9,27.3,30.21,SE,131,17.0,23.0,48,0.00,,SCT050,0.00,VWS V13.01,2013-04-06 14:08:00,
2013-04-06 10:13:00,46.1,27.5,30.21,SE,136,4.0,23.0,48,0.00,,SCT050,0.00,VWS V13.01,2013-04-06 14:13:00,
2013-04-06 10:18:00,46.6,28.0,30.21,SSE,150,11.0,23.0,48,0.00,,SCT050,0.00,VWS V13.01,2013-04-06 14:18:00,
2013-04-06 10:23:00,46.9,28.8,30.21,SSE,162,11.0,23.0,49,0.00,,SCT050,0.00,VWS V13.01,2013-04-06 14:23:00,
2013-04-06 10:28:00,48.1,28.8,30.22,SE,136,10.0,23.0,47,0.00,,SCT050,0.00,VWS V13.01,2013-04-06 14:28:00,
2013-04-06 10:33:00,48.3,28.0,30.22,SE,134,7.0,18.0,45,0.00,,SCT050,0.00,VWS V13.01,2013-04-06 14:33:00,
2013-04-06 10:38:00,48.8,28.4,30.22,South,169,13.0,18.0,45,0.00,,SCT050,0.00,VWS V13.01,2013-04-06 14:38:00,
2013-04-06 10:43:00,48.4,28.6,30.22,SE,146,15.0,20.0,46,0.00,,SCT050,0.00,VWS V13.01,2013-04-06 14:43:00,
2013-04-06 10:48:00,49.3,29.9,30.22,SSE,148,11.0,20.0,47,0.00,,SCT100,0.00,VWS V13.01,2013-04-06 14:48:00,
2013-04-06 10:53:00,49.5,29.6,30.22,SE,144,11.0,20.0,46,0.00,,SCT100,0.00,VWS V13.01,2013-04-06 14:53:00,
2013-04-06 10:58:00,49.0,28.6,30.21,SSE,153,14.0,20.0,45,0.00,,SCT100,0.00,VWS V13.01,2013-04-06 14:58:00,
2013-04-06 11:03:00,49.2,29.3,30.21,SSE,155,12.0,20.0,46,0.00,,SCT100,0.00,VWS V13.01,2013-04-06 15:03:00,
2013-04-06 11:08:00,49.5,29.6,30.21,SSE,149,13.0,20.0,46,0.00,,SCT100,0.00,VWS V13.01,2013-04-06 15:08:00,
2013-04-06 11:13:00,49.3,28.9,30.20,SSE,167,16.0,20.0,45,0.00,,SCT100,0.00,VWS V13.01,2013-04-06 15:13:00,
2013-04-06 11:18:00,49.5,29.6,30.20,SSE,161,12.0,23.0,46,0.00,,SCT100,0.00,VWS V13.01,2013-04-06 15:18:00,
2013-04-06 11:23:00,50.1,30.1,30.20,SSE,168,14.0,23.0,46,0.00,,SCT100,0.00,VWS V13.01,2013-04-06 15:23:00,
2013-04-06 11:28:00,50.4,29.3,30.20,SSE,158,3.0,23.0,44,0.00,,SCT100,0.00,VWS V13.01,2013-04-06 15:28:00,
2013-04-06 11:33:00,50.8,30.8,30.20,South,181,10.0,22.0,46,0.00,,SCT100,0.00,VWS V13.01,2013-04-06 15:33:00,
2013-04-06 11:38:00,51.4,30.8,30.20,South,170,14.0,22.0,45,0.00,,SCT100,0.00,VWS V13.01,2013-04-06 15:38:00,
2013-04-06 11:43:00,51.7,29.4,30.20,SSE,167,3.0,22.0,42,0.00,,SCT100,0.00,VWS V13.01,2013-04-06 15:43:00,
2013-04-06 11:48:00,52.1,29.7,30.20,SSE,165,8.0,22.0,42,0.00,,SCT100,0.00,VWS V13.01,2013-04-06 15:48:00,
2013-04-06 11:53:00,52.4,31.1,30.19,South,173,17.0,22.0,44,0.00,,SCT100,0.00,VWS V13.01,2013-04-06 15:53:00,
2013-04-06 11:58:00,53.1,31.2,30.19,SSE,158,4.0,22.0,43,0.00,,SCT100,0.00,VWS V13.01,2013-04-06 15:58:00,
2013-04-06 12:03:00,54.1,31.5,30.19,SSE,164,14.0,14.0,42,0.00,,SCT100,0.00,VWS V13.01,2013-04-06 16:03:00,
2013-04-06 12:08:00,53.5,31.6,30.19,South,177,13.0,14.0,43,0.00,,SCT100,0.00,VWS V13.01,2013-04-06 16:08:00,
2013-04-06 12:13:00,53.6,30.5,30.18,SSE,153,12.0,18.0,41,0.00,,SCT100,0.00,VWS V13.01,2013-04-06 16:13:00,
2013-04-06 12:18:00,52.9,30.5,30.18,SSE,163,13.0,18.0,42,0.00,,SCT100,0.00,VWS V13.01,2013-04-06 16:18:00,
2013-04-06 12:23:00,52.9,31.0,30.18,SSE,165,16.0,26.0,43,0.00,,SCT100,0.00,VWS V13.01,2013-04-06 16:23:00,
2013-04-06 12:28:00,53.0,31.7,30.18,SSE,159,13.0,26.0,44,0.00,,SCT100,0.00,VWS V13.01,2013-04-06 16:28:00,
2013-04-06 12:33:00,53.2,30.7,30.18,SSE,167,16.0,19.0,42,0.00,,SCT100,0.00,VWS V13.01,2013-04-06 16:33:00,
2013-04-06 12:38:00,53.7,32.9,30.17,SSE,159,13.0,23.0,45,0.00,,SCT100,0.00,VWS V13.01,2013-04-06 16:38:00,
2013-04-06 12:43:00,54.1,32.1,30.17,SSE,163,16.0,23.0,43,0.00,,SCT100,0.00,VWS V13.01,2013-04-06 16:43:00,
2013-04-06 12:48:00,54.2,32.8,30.16,SE,144,16.0,23.0,44,0.00,,CLR,0.00,VWS V13.01,2013-04-06 16:48:00,
2013-04-06 12:53:00,54.2,31.6,30.16,SSE,155,13.0,23.0,42,0.00,,CLR,0.00,VWS V13.01,2013-04-06 16:53:00,
2013-04-06 12:58:00,54.3,31.7,30.16,SSE,150,10.0,23.0,42,0.00,,CLR,0.00,VWS V13.01,2013-04-06 16:58:00,
2013-04-06 13:04:00,55.1,33.0,30.15,SSE,162,6.0,24.0,43,0.00,,CLR,0.00,VWS V13.01,2013-04-06 17:04:00,
2013-04-06 13:09:00,55.5,32.2,30.15,SSE,160,18.0,24.0,41,0.00,,CLR,0.00,VWS V13.01,2013-04-06 17:09:00,
2013-04-06 13:14:00,55.9,33.8,30.14,South,173,18.0,24.0,43,0.00,,CLR,0.00,VWS V13.01,2013-04-06 17:14:00,
2013-04-06 13:20:00,56.3,34.1,30.14,SSE,155,17.0,24.0,43,0.00,,CLR,0.00,VWS V13.01,2013-04-06 17:20:00,
2013-04-06 13:25:00,56.4,32.4,30.14,SSE,166,19.0,24.0,40,0.00,,CLR,0.00,VWS V13.01,2013-04-06 17:25:00,
2013-04-06 13:30:00,57.6,32.8,30.13,SSE,151,12.0,24.0,39,0.00,,CLR,0.00,VWS V13.01,2013-04-06 17:30:00,
2013-04-06 13:35:00,58.5,34.3,30.13,SE,131,17.0,21.0,40,0.00,,CLR,0.00,VWS V13.01,2013-04-06 17:35:00,
2013-04-06 13:40:00,59.0,34.7,30.12,South,171,23.0,23.0,40,0.00,,CLR,0.00,VWS V13.01,2013-04-06 17:40:00,
2013-04-06 13:45:00,58.8,34.5,30.11,SSE,161,13.0,25.0,40,0.00,,CLR,0.00,VWS V13.01,2013-04-06 17:45:00,
2013-04-06 13:50:00,59.0,34.7,30.11,South,170,19.0,25.0,40,0.00,,SCT100,0.00,VWS V13.01,2013-04-06 17:50:00,
2013-04-06 13:55:00,59.2,34.9,30.11,SE,143,9.0,25.0,40,0.00,,SCT100,0.00,VWS V13.01,2013-04-06 17:55:00,
2013-04-06 14:00:00,59.9,34.9,30.10,SSE,150,20.0,20.0,39,0.00,,SCT100,0.00,VWS V13.01,2013-04-06 18:00:00,
2013-04-06 14:05:00,60.3,35.9,30.10,SSE,167,15.0,22.0,40,0.00,,SCT100,0.00,VWS V13.01,2013-04-06 18:05:00,
2013-04-06 14:10:00,60.9,35.1,30.10,SSE,161,16.0,30.0,38,0.00,,SCT100,0.00,VWS V13.01,2013-04-06 18:10:00,
2013-04-06 14:15:00,60.7,35.0,30.10,SSE,157,7.0,30.0,38,0.00,,SCT100,0.00,VWS V13.01,2013-04-06 18:15:00,
2013-04-06 14:20:00,61.2,36.7,30.09,SSE,163,18.0,30.0,40,0.00,,SCT100,0.00,VWS V13.01,2013-04-06 18:20:00,
2013-04-06 14:25:00,62.2,34.9,30.09,South,171,23.0,30.0,36,0.00,,SCT100,0.00,VWS V13.01,2013-04-06 18:25:00,
2013-04-06 14:30:00,62.1,34.8,30.08,South,173,16.0,21.0,36,0.00,,SCT100,0.00,VWS V13.01,2013-04-06 18:30:00,
2013-04-06 14:35:00,61.7,36.5,30.08,South,175,23.0,29.0,39,0.00,,SCT100,0.00,VWS V13.01,2013-04-06 18:35:00,
2013-04-06 14:40:00,63.0,37.7,30.07,SE,142,13.0,29.0,39,0.00,,SCT100,0.00,VWS V13.01,2013-04-06 18:40:00,
2013-04-06 14:45:00,63.5,36.8,30.07,South,179,27.0,33.0,37,0.00,,CLR,0.00,VWS V13.01,2013-04-06 18:45:00,
2013-04-06 14:50:00,63.2,37.9,30.06,SSE,158,16.0,33.0,39,0.00,,CLR,0.00,VWS V13.01,2013-04-06 18:50:00,
2013-04-06 14:55:00,63.7,38.3,30.05,South,172,25.0,33.0,39,0.00,,CLR,0.00,VWS V13.01,2013-04-06 18:55:00,
2013-04-06 15:00:00,63.2,37.2,30.05,South,180,22.0,23.0,38,0.00,,CLR,0.00,VWS V13.01,2013-04-06 19:00:00,
2013-04-06 15:05:00,63.5,37.5,30.04,SSE,150,19.0,24.0,38,0.00,,CLR,0.00,VWS V13.01,2013-04-06 19:05:00,
2013-04-06 15:10:00,63.9,36.5,30.04,SSE,165,18.0,26.0,36,0.00,,CLR,0.00,VWS V13.01,2013-04-06 19:10:00,
2013-04-06 15:15:00,64.4,36.9,30.03,SSW,200,24.0,27.0,36,0.00,,CLR,0.00,VWS V13.01,2013-04-06 19:15:00,
2013-04-06 15:20:00,64.4,38.9,30.03,SSE,157,18.0,29.0,39,0.00,,CLR,0.00,VWS V13.01,2013-04-06 19:20:00,
2013-04-06 15:25:00,64.8,38.6,30.02,SSE,156,19.0,29.0,38,0.00,,CLR,0.00,VWS V13.01,2013-04-06 19:25:00,
2013-04-06 15:30:00,65.5,37.9,30.01,SSE,155,13.0,22.0,36,0.00,,CLR,0.00,VWS V13.01,2013-04-06 19:30:00,
2013-04-06 15:35:00,64.9,38.0,30.01,SSE,151,23.0,28.0,37,0.00,,CLR,0.00,VWS V13.01,2013-04-06 19:35:00,
2013-04-06 15:41:00,64.8,37.9,30.00,South,169,18.0,28.0,37,0.00,,CLR,0.00,VWS V13.01,2013-04-06 19:41:00,
2013-04-06 15:46:00,65.0,37.4,30.00,SSE,161,16.0,28.0,36,0.00,,CLR,0.00,VWS V13.01,2013-04-06 19:46:00,
2013-04-06 15:51:00,65.2,38.3,30.00,SE,143,17.0,32.0,37,0.00,,CLR,0.00,VWS V13.01,2013-04-06 19:51:00,
2013-04-06 15:57:00,65.4,39.2,30.00,SSE,160,13.0,32.0,38,0.00,,CLR,0.00,VWS V13.01,2013-04-06 19:57:00,
2013-04-06 16:02:00,65.8,38.8,29.99,SSE,161,11.0,21.0,37,0.00,,CLR,0.00,VWS V13.01,2013-04-06 20:02:00,
2013-04-06 16:07:00,65.2,37.6,29.99,SSE,157,19.0,25.0,36,0.00,,CLR,0.00,VWS V13.01,2013-04-06 20:07:00,
2013-04-06 16:12:00,64.5,37.7,29.99,SSW,193,20.0,33.0,37,0.00,,CLR,0.00,VWS V13.01,2013-04-06 20:12:00,
2013-04-06 16:17:00,64.7,37.2,29.98,South,174,31.0,33.0,36,0.00,,CLR,0.00,VWS V13.01,2013-04-06 20:17:00,
2013-04-06 16:22:00,64.9,37.3,29.98,SSW,195,23.0,33.0,36,0.00,,CLR,0.00,VWS V13.01,2013-04-06 20:22:00,
2013-04-06 16:27:00,65.3,38.4,29.98,SSW,204,31.0,33.0,37,0.00,,CLR,0.00,VWS V13.01,2013-04-06 20:27:00,
2013-04-06 16:32:00,64.7,37.2,29.98,South,188,32.0,33.0,36,0.00,,CLR,0.00,VWS V13.01,2013-04-06 20:32:00,
2013-04-06 16:37:00,64.7,37.8,29.97,SSE,167,17.0,33.0,37,0.00,,CLR,0.00,VWS V13.01,2013-04-06 20:37:00,
2013-04-06 16:42:00,64.6,38.4,29.97,South,169,13.0,33.0,38,0.00,,CLR,0.00,VWS V13.01,2013-04-06 20:42:00,
2013-04-06 16:47:00,64.6,38.4,29.97,SSE,162,20.0,33.0,38,0.00,,CLR,0.00,VWS V13.01,2013-04-06 20:47:00,
2013-04-06 16:52:00,64.6,38.4,29.96,SSE,166,18.0,33.0,38,0.00,,CLR,0.00,VWS V13.01,2013-04-06 20:52:00,
2013-04-06 16:57:00,64.9,38.7,29.96,South,182,24.0,33.0,38,0.00,,CLR,0.00,VWS V13.01,2013-04-06 20:57:00,
2013-04-06 17:02:00,64.6,37.8,29.95,South,171,25.0,32.0,37,0.00,,CLR,0.00,VWS V13.01,2013-04-06 21:02:00,
2013-04-06 17:07:00,64.5,38.3,29.95,South,169,22.0,33.0,38,0.00,,CLR,0.00,VWS V13.01,2013-04-06 21:07:00,
2013-04-06 17:13:00,64.4,38.3,29.94,South,178,20.0,33.0,38,0.00,,CLR,0.00,VWS V13.01,2013-04-06 21:13:00,
2013-04-06 17:18:00,64.3,38.2,29.94,South,173,28.0,33.0,38,0.00,,CLR,0.00,VWS V13.01,2013-04-06 21:18:00,
2013-04-06 17:23:00,64.0,37.9,29.94,SSE,163,19.0,33.0,38,0.00,,CLR,0.00,VWS V13.01,2013-04-06 21:23:00,
2013-04-06 17:28:00,63.6,38.2,29.93,SSE,158,24.0,36.0,39,0.00,,CLR,0.00,VWS V13.01,2013-04-06 21:28:00,
2013-04-06 17:33:00,63.4,38.0,29.94,South,169,28.0,34.0,39,0.00,,CLR,0.00,VWS V13.01,2013-04-06 21:33:00,
2013-04-06 17:38:00,63.5,38.8,29.94,SSE,166,19.0,34.0,40,0.00,,CLR,0.00,VWS V13.01,2013-04-06 21:38:00,
2013-04-06 17:43:00,63.5,38.8,29.94,SSE,160,16.0,34.0,40,0.00,,CLR,0.00,VWS V13.01,2013-04-06 21:43:00,
2013-04-06 17:48:00,63.5,38.8,29.93,SSE,159,21.0,34.0,40,0.00,,CLR,0.00,VWS V13.01,2013-04-06 21:48:00,
2013-04-06 17:53:00,63.4,38.7,29.93,South,181,24.0,34.0,40,0.00,,CLR,0.00,VWS V13.01,2013-04-06 21:53:00,
2013-04-06 17:58:00,63.5,39.4,29.93,SSE,163,19.0,34.0,41,0.00,,CLR,0.00,VWS V13.01,2013-04-06 21:58:00,
2013-04-06 18:03:00,63.4,39.3,29.93,South,173,20.0,25.0,41,0.00,,CLR,0.00,VWS V13.01,2013-04-06 22:03:00,
2013-04-06 18:08:00,63.3,39.2,29.92,SE,140,9.0,31.0,41,0.00,,CLR,0.00,VWS V13.01,2013-04-06 22:08:00,
2013-04-06 18:13:00,63.4,39.9,29.92,SSE,167,16.0,31.0,42,0.00,,CLR,0.00,VWS V13.01,2013-04-06 22:13:00,
2013-04-06 18:18:00,63.2,39.1,29.92,SSE,157,19.0,32.0,41,0.00,,CLR,0.00,VWS V13.01,2013-04-06 22:18:00,
2013-04-06 18:23:00,63.1,38.4,29.92,SSE,165,26.0,32.0,40,0.00,,CLR,0.00,VWS V13.01,2013-04-06 22:23:00,
2013-04-06 18:28:00,63.1,38.4,29.92,SSE,163,20.0,33.0,40,0.00,,CLR,0.00,VWS V13.01,2013-04-06 22:28:00,
2013-04-06 18:33:00,62.9,38.9,29.92,SSE,149,18.0,26.0,41,0.00,,CLR,0.00,VWS V13.01,2013-04-06 22:33:00,
2013-04-06 18:38:00,62.8,38.8,29.91,SSE,163,20.0,27.0,41,0.00,,CLR,0.00,VWS V13.01,2013-04-06 22:38:00,
2013-04-06 18:43:00,62.6,38.6,29.91,South,169,19.0,27.0,41,0.00,,CLR,0.00,VWS V13.01,2013-04-06 22:43:00,
2013-04-06 18:48:00,62.7,38.7,29.91,SSE,156,14.0,27.0,41,0.00,,CLR,0.00,VWS V13.01,2013-04-06 22:48:00,
2013-04-06 18:53:00,62.8,38.8,29.91,SSE,154,15.0,27.0,41,0.00,,CLR,0.00,VWS V13.01,2013-04-06 22:53:00,
2013-04-06 18:57:00,62.5,39.1,29.91,SSE,167,16.0,27.0,42,0.00,,CLR,0.00,VWS V13.01,2013-04-06 22:57:00,
2013-04-06 19:02:00,62.6,39.2,29.90,SSE,163,14.0,19.0,42,0.00,,CLR,0.00,VWS V13.01,2013-04-06 23:02:00,
2013-04-06 19:08:00,62.6,38.6,29.90,SSE,157,5.0,21.0,41,0.00,,CLR,0.00,VWS V13.01,2013-04-06 23:08:00,
2013-04-06 19:13:00,62.5,39.1,29.90,SSE,150,13.0,21.0,42,0.00,,CLR,0.00,VWS V13.01,2013-04-06 23:13:00,
2013-04-06 19:18:00,62.4,39.0,29.90,SSE,163,16.0,21.0,42,0.00,,CLR,0.00,VWS V13.01,2013-04-06 23:18:00,
2013-04-06 19:23:00,62.6,39.2,29.89,SSE,148,16.0,22.0,42,0.00,,CLR,0.00,VWS V13.01,2013-04-06 23:23:00,
2013-04-06 19:28:00,62.9,39.5,29.90,SSE,157,19.0,26.0,42,0.00,,CLR,0.00,VWS V13.01,2013-04-06 23:28:00,
2013-04-06 19:33:00,63.0,39.0,29.90,SSE,155,20.0,22.0,41,0.00,,CLR,0.00,VWS V13.01,2013-04-06 23:33:00,
2013-04-06 19:39:00,63.0,39.0,29.90,SSE,153,10.0,22.0,41,0.00,,CLR,0.00,VWS V13.01,2013-04-06 23:39:00,
2013-04-06 19:44:00,63.0,39.6,29.91,SSE,166,15.0,22.0,42,0.00,,CLR,0.00,VWS V13.01,2013-04-06 23:44:00,
2013-04-06 19:49:00,62.9,39.5,29.91,SSE,156,12.0,22.0,42,0.00,,CLR,0.00,VWS V13.01,2013-04-06 23:49:00,
2013-04-06 19:54:00,63.0,39.6,29.91,SSE,155,15.0,24.0,42,0.00,,CLR,0.00,VWS V13.01,2013-04-06 23:54:00,
2013-04-06 19:59:00,63.0,39.0,29.91,SSE,165,17.0,24.0,41,0.00,,CLR,0.00,VWS V13.01,2013-04-06 23:59:00,
2013-04-06 20:04:00,62.5,39.1,29.91,SSE,162,12.0,18.0,42,0.00,,CLR,0.00,VWS V13.01,2013-04-07 00:04:00,
2013-04-06 20:09:00,62.2,39.5,29.91,SSE,167,14.0,18.0,43,0.00,,CLR,0.00,VWS V13.01,2013-04-07 00:09:00,
2013-04-06 20:14:00,61.7,39.6,29.91,SSE,157,6.0,19.0,44,0.00,,CLR,0.00,VWS V13.01,2013-04-07 00:14:00,
2013-04-06 20:19:00,61.7,39.6,29.90,SSE,160,6.0,19.0,44,0.00,,CLR,0.00,VWS V13.01,2013-04-07 00:19:00,
2013-04-06 20:24:00,61.7,39.6,29.90,SSE,158,12.0,19.0,44,0.00,,CLR,0.00,VWS V13.01,2013-04-07 00:24:00,
2013-04-06 20:29:00,61.4,39.3,29.90,SSE,159,11.0,19.0,44,0.00,,CLR,0.00,VWS V13.01,2013-04-07 00:29:00,
2013-04-06 20:34:00,61.1,39.6,29.90,SSE,161,9.0,18.0,45,0.00,,CLR,0.00,VWS V13.01,2013-04-07 00:34:00,
2013-04-06 20:39:00,61.3,39.8,29.90,SSE,163,11.0,20.0,45,0.00,,CLR,0.00,VWS V13.01,2013-04-07 00:39:00,
2013-04-06 20:44:00,60.9,39.4,29.90,SSE,167,11.0,20.0,45,0.00,,CLR,0.00,VWS V13.01,2013-04-07 00:44:00,
2013-04-06 20:49:00,61.1,39.6,29.89,SSE,151,17.0,20.0,45,0.00,,CLR,0.00,VWS V13.01,2013-04-07 00:49:00,
2013-04-06 20:54:00,60.7,39.3,29.89,SSE,150,13.0,21.0,45,0.00,,CLR,0.00,VWS V13.01,2013-04-07 00:54:00,
2013-04-06 21:00:00,60.6,39.2,29.89,SSE,163,14.0,21.0,45,0.00,,CLR,0.00,VWS V13.01,2013-04-07 01:00:00,
2013-04-06 21:05:00,60.5,39.1,29.89,SSE,149,13.0,18.0,45,0.00,,CLR,0.00,VWS V13.01,2013-04-07 01:05:00,
2013-04-06 21:10:00,59.9,39.1,29.88,SSE,158,13.0,18.0,46,0.00,,CLR,0.00,VWS V13.01,2013-04-07 01:10:00,
2013-04-06 21:15:00,60.1,39.3,29.88,SSE,167,18.0,18.0,46,0.00,,CLR,0.00,VWS V13.01,2013-04-07 01:15:00,
2013-04-06 21:20:00,60.1,39.3,29.88,SSE,159,9.0,20.0,46,0.00,,CLR,0.00,VWS V13.01,2013-04-07 01:20:00,
2013-04-06 21:25:00,60.0,39.7,29.87,SSE,161,10.0,20.0,47,0.00,,CLR,0.00,VWS V13.01,2013-04-07 01:25:00,
2013-04-06 21:30:00,59.8,40.6,29.87,South,169,12.0,13.0,49,0.00,,CLR,0.00,VWS V13.01,2013-04-07 01:30:00,
2013-04-06 21:35:00,59.8,40.1,29.88,South,171,18.0,20.0,48,0.00,,CLR,0.00,VWS V13.01,2013-04-07 01:35:00,
2013-04-06 21:40:00,59.8,40.1,29.87,South,173,17.0,20.0,48,0.00,,CLR,0.00,VWS V13.01,2013-04-07 01:40:00,
2013-04-06 21:45:00,59.9,39.6,29.87,South,169,14.0,20.0,47,0.00,,CLR,0.00,VWS V13.01,2013-04-07 01:45:00,
2013-04-06 21:50:00,59.7,40.0,29.87,SSE,160,14.0,24.0,48,0.00,,CLR,0.00,VWS V13.01,2013-04-07 01:50:00,
2013-04-06 21:55:00,59.5,39.8,29.87,South,171,15.0,24.0,48,0.00,,CLR,0.00,VWS V13.01,2013-04-07 01:55:00,
2013-04-06 22:00:00,59.5,39.8,29.87,South,170,16.0,16.0,48,0.00,,CLR,0.00,VWS V13.01,2013-04-07 02:00:00,
2013-04-06 22:05:00,60.4,39.0,29.87,South,182,22.0,29.0,45,0.00,,CLR,0.00,VWS V13.01,2013-04-07 02:05:00,
2013-04-06 22:10:00,60.6,39.2,29.87,SSE,167,21.0,29.0,45,0.00,,CLR,0.00,VWS V13.01,2013-04-07 02:10:00,
2013-04-06 22:15:00,60.8,39.3,29.87,South,172,25.0,29.0,45,0.00,,CLR,0.00,VWS V13.01,2013-04-07 02:15:00,
2013-04-06 22:20:00,60.9,39.4,29.87,South,173,22.0,29.0,45,0.00,,CLR,0.00,VWS V13.01,2013-04-07 02:20:00,
2013-04-06 22:25:00,61.1,39.0,29.88,South,182,18.0,29.0,44,0.00,,CLR,0.00,VWS V13.01,2013-04-07 02:25:00,
2013-04-06 22:30:00,61.2,39.1,29.89,South,187,17.0,19.0,44,0.00,,CLR,0.00,VWS V13.01,2013-04-07 02:30:00,
2013-04-06 22:35:00,61.4,38.7,29.88,South,177,15.0,28.0,43,0.00,,CLR,0.00,VWS V13.01,2013-04-07 02:35:00,
2013-04-06 22:40:00,61.4,39.3,29.88,South,179,15.0,28.0,44,0.00,,CLR,0.00,VWS V13.01,2013-04-07 02:40:00,
2013-04-06 22:45:00,61.5,39.4,29.88,SSW,194,17.0,28.0,44,0.00,,CLR,0.00,VWS V13.01,2013-04-07 02:45:00,
2013-04-06 22:50:00,61.5,38.8,29.88,South,180,24.0,28.0,43,0.00,,CLR,0.00,VWS V13.01,2013-04-07 02:50:00,
2013-04-06 22:55:00,61.6,39.5,29.88,South,186,20.0,29.0,44,0.00,,CLR,0.00,VWS V13.01,2013-04-07 02:55:00,
2013-04-06 23:00:00,61.5,39.4,29.88,South,180,17.0,21.0,44,0.00,,CLR,0.00,VWS V13.01,2013-04-07 03:00:00,
2013-04-06 23:05:00,61.4,39.3,29.87,SSW,196,19.0,23.0,44,0.00,,CLR,0.00,VWS V13.01,2013-04-07 03:05:00,
2013-04-06 23:10:00,61.5,38.8,29.87,South,190,22.0,28.0,43,0.00,,CLR,0.00,VWS V13.01,2013-04-07 03:10:00,
2013-04-06 23:15:00,61.6,39.5,29.87,South,174,13.0,28.0,44,0.00,,CLR,0.00,VWS V13.01,2013-04-07 03:15:00,
2013-04-06 23:20:00,61.9,39.2,29.87,South,186,18.0,31.0,43,0.00,,CLR,0.00,VWS V13.01,2013-04-07 03:20:00,
2013-04-06 23:25:00,62.4,38.4,29.87,SSW,194,29.0,35.0,41,0.00,,CLR,0.00,VWS V13.01,2013-04-07 03:25:00,
2013-04-06 23:30:00,62.6,39.2,29.86,South,191,17.0,24.0,42,0.00,,CLR,0.00,VWS V13.01,2013-04-07 03:30:00,
2013-04-06 23:35:00,62.3,38.9,29.86,South,182,19.0,33.0,42,0.00,,CLR,0.00,VWS V13.01,2013-04-07 03:35:00,
2013-04-06 23:40:00,62.3,38.9,29.86,South,183,16.0,33.0,42,0.00,,CLR,0.00,VWS V13.01,2013-04-07 03:40:00,
2013-04-06 23:45:00,62.0,39.3,29.86,South,189,29.0,36.0,43,0.00,,CLR,0.00,VWS V13.01,2013-04-07 03:45:00,
2013-04-06 23:50:00,62.0,38.7,29.86,SSW,197,25.0,36.0,42,0.00,,CLR,0.00,VWS V13.01,2013-04-07 03:50:00,
2013-04-06 23:55:00,62.1,38.8,29.86,SSW,194,31.0,36.0,42,0.00,,CLR,0.00,VWS V13.01,2013-04-07 03:55:00,